This demonstration page uses our WeatherBlox Daily Observations layout. Learn more.

Left ArrowRight Arrow

Hourly Observations for July 11, 2019

Temp ( °F °C ) Dew Point ( °F °C ) Humidity (%) Winds ( mph kmh ) Pressure ( in mb ) Visibility ( mi km ) Precip ( " mm )
12:56 am 00:56 Clear 68 20 63 17.2 84 84 Calm 30.18 1022 10 16 0.00 0.00
1:56 am 01:56 Clear 66 18.9 61 16.1 84 84 NW 3 6 30.17 1022 10 16 0.00 0.00
2:56 am 02:56 Clear 65 18.3 61 16.1 87 87 W 3 6 30.16 1021 10 16 0.00 0.00
3:56 am 03:56 Clear 64 17.8 60 15.6 87 87 Calm 30.15 1021 10 16 0.00 0.00
4:56 am 04:56 Clear 63 17.2 60 15.6 90 90 NNW 3 6 30.14 1021 10 16 0.00 0.00
5:56 am 05:56 Clear 61 16.1 59 15 93 93 NW 3 6 30.14 1021 10 16 0.00 0.00
6:56 am 06:56 Sunny 62 16.7 59 15 90 90 NNW 3 6 30.14 1021 10 16 0.00 0.00
7:56 am 07:56 Sunny 66 18.9 61 16.1 84 84 Calm 30.16 1021 10 16 0.00 0.00
8:56 am 08:56 Sunny 71 21.7 63 17.2 76 76 Calm 30.17 1022 10 16 0.00 0.00
9:56 am 09:56 Sunny 74 23.3 64 17.8 71 71 S 6 9 30.16 1021 10 16 0.00 0.00
10:56 am 10:56 Sunny 76 24.4 65 18.3 69 69 SSE 7 11 30.15 1021 10 16 0.00 0.00
11:56 am 11:56 Sunny 78 25.6 63 17.2 60 60 SW 9 15 30.13 1020 10 16 0.00 0.00
12:56 pm 12:56 Sunny 79 26.1 65 18.3 62 62 SW 8 13 30.11 1020 10 16 0.00 0.00
1:56 pm 13:56 Sunny 80 26.7 65 18.3 60 60 SSW 9 15 30.08 1019 10 16 0.00 0.00
2:56 pm 14:56 Sunny 82 27.8 65 18.3 56 56 S 9 15 30.06 1018 10 16 0.00 0.00
3:56 pm 15:56 Sunny 82 27.8 66 18.9 58 58 SSE 9 15 30.04 1017 10 16 0.00 0.00
4:56 pm 16:56 Sunny 83 28.3 66 18.9 57 57 S 12 19 30.01 1016 10 16 0.00 0.00
5:56 pm 17:56 Sunny 83 28.3 65 18.3 55 55 SSE 12 19 30.00 1016 10 16 0.00 0.00
6:56 pm 18:56 Sunny 82 27.8 67 19.4 60 60 SSE 8 13 30.00 1016 10 16 0.00 0.00
7:56 pm 19:56 Sunny 80 26.7 66 18.9 62 62 SSE 9 15 29.99 1016 10 16 0.00 0.00
8:56 pm 20:56 Sunny 75 23.9 67 19.4 76 76 SE 8 13 29.98 1015 10 16 0.00 0.00
9:56 pm 21:56 Clear 73 22.8 67 19.4 81 81 SSE 9 15 29.98 1015 10 16 0.00 0.00
10:56 pm 22:56 Clear 71 21.7 66 18.9 84 84 SSE 9 15 29.99 1016 10 16 0.00 0.03
11:56 pm 23:56 Clear 70 21.1 66 18.9 87 87 SSE 8 13 29.99 1016 9 14 0.00 0.00

Powered by AerisWeather